Location: Amsterdam
(30.7274°N, 84.4357°W)
Time: 18:27:30
(UTC+00:00)

DOVE 4 - Visible Passes

Search period start: 07 March 2026 00:00
Search period end: 17 March 2026 00:00
Orbit: 572 x 756 km, 97.7° (Epoch: 7 March)

Date Brightness Start Highest point End Pass type
(mag) Time Alt. Az. Time Alt. Az. Time Alt. Az.
7 Mar ? 01:21:46 10° N 01:26:12 56° WNW 01:30:52 10° SSW visible
8 Mar ? 00:16:18 10° NE 00:20:03 25° E 00:23:57 10° SSE visible
8 Mar ? 01:53:13 10° NNW 01:56:55 25° WNW 02:00:45 10° SW visible
9 Mar ? 00:46:25 10° NNE 00:50:57 56° E 00:55:42 10° S visible
9 Mar ? 02:26:08 10° NW 02:27:31 11° WNW 02:28:55 10° W visible
10 Mar ? 01:17:11 10° N 01:21:46 62° WNW 01:26:32 10° SSW visible
11 Mar ? 00:11:54 10° NE 00:15:35 23° E 00:19:23 10° SSE visible
11 Mar ? 01:48:33 10° NNW 01:52:28 28° WNW 01:56:33 10° SW visible
12 Mar ? 00:41:55 10° NNE 00:46:29 51° E 00:51:14 10° S visible
12 Mar ? 02:20:59 10° NW 02:23:04 13° WNW 02:25:12 10° W visible
13 Mar ? 01:12:37 10° N 01:17:17 70° WNW 01:22:10 10° SSW visible
14 Mar ? 00:07:30 10° NE 00:11:05 21° E 00:14:45 10° SE visible
14 Mar ? 01:43:52 10° NNW 01:48:01 31° WNW 01:52:18 10° SW visible
15 Mar ? 00:37:24 10° NNE 00:41:59 46° E 00:46:45 10° S visible
15 Mar ? 02:16:00 10° NW 02:18:36 15° WNW 02:21:14 10° WSW visible
16 Mar ? 01:08:01 10° N 01:12:48 78° WNW 01:17:45 10° SSW visible
